Regional Weather Roundup
Issued by NWS

Home | Current Version | Previous Version | Text Only | Print | Product List | Glossary Off
Versions: 1 2 3 4 5 6 7 8 9 10 11 12 13 14 15 16 17 18 19 20 21 22 23 24 25 26 27 28 29 30 31 32 33 34 35 36 37 38 39 40 41 42 43 44 45 46 47 48 49 50

000
ASUS43 KLMK 102210
RWRKY
KENTUCKY REGIONAL WEATHER ROUNDUP
NATIONAL WEATHER SERVICE LOUISVILLE KY
500 PM EST SUN DEC 10 2017

NOTE "FAIR" INDICATES FEW OR NO CLOUDS BELOW 12,000 FEET
WITH NO SIGNIFICANT WEATHER AND/OR OBSTRUCTIONS TO VISIBILITY.

KYZ001>023-026-027-061>063-070>075-102300-
WESTERN AND SOUTH CENTRAL KENTUCKY

CITY           SKY/WX    TMP DP  RH WIND       PRES   REMARKS
PADUCAH        CLEAR     49  27  42 SW12G23   30.07R
HENDERSON      CLEAR     44  27  51 SW14      30.04R
OWENSBORO      CLEAR     43  25  49 SW12      30.04S
HOPKINSVILLE   PTCLDY    47  21  36 SW18      30.07S
BOWLING GREEN  CLEAR     45  20  36 SW13      30.07F
GLASGOW        MOCLDY    42  19  40 SW10      30.06S
$$

KYZ024-025-028>034-038-045-046-053-102300-
NORTH CENTRAL KENTUCKY

CITY           SKY/WX    TMP DP  RH WIND       PRES   REMARKS
LOUISVILLE/SDF PTCLDY    42  19  39 SW13G21   30.03R
LOUISVILLE/LOU CLEAR     41  20  43 SW10      30.04R
FORT KNOX      CLEAR     40  19  43 SW10      30.02R WCI  33
$$

KYZ035>037-039>044-047>052-055>060-089>105-102300-
NORTHEAST KENTUCKY

CITY           SKY/WX    TMP DP  RH WIND       PRES   REMARKS
LEXINGTON      CLEAR     38  18  44 S13       30.00F WCI  30
COVINGTON      PTCLDY    35  19  52 SW12      29.97R WCI  27
FRANKFORT      CLEAR     38  17  42 SW15G23   29.99F WCI  29
$$

KYZ054-064>069-076>088-106>120-102300-
SOUTHEAST KENTUCKY

CITY           SKY/WX    TMP DP  RH WIND       PRES   REMARKS
JACKSON        PTCLDY    36  16  44 CALM      30.03F
LONDON         PTCLDY    39  14  36 SW8       30.06F WCI  33
SOMERSET       CLEAR     37  18  44 S6        30.08F WCI  33
MIDDLESBORO    CLEAR     39  18  43 S5        30.12S
MONTICELLO     MOCLDY    39  20  46 VRB3G20   30.09F
$$




USA.gov is the U.S. government's official web portal to all federal, state and local government web resources and services.